STARLINK-4048, 52839

Orbit data source: Space-Track

STARLINK-4048, 52839 is a payload satellite owned by SpaceX/Seattle (US) in LEO that was launched on Fri, 17 Jun 2022 UTC via an FALCON 9 launch vehicle from the Air Force Eastern Test Range (AFETR). Payload-class satellites include a variety of spacecraft equipped with specific instruments for various scientific and technological missions. These include communications satellites like Starlink; space stations such as the ISS; scientific satellites like the Hubble; Earth observation satellites from companies like Planet Labs, Umbra, and HawkEye 360; GPS; miniature CubeSats for education and research; and military/defense satellites.

Loading next visibility...
Identifier
52839, 2022-062K
Orbit
LEO
Country
Flag of USUS
Related business
Manufacturer
SpaceX/Seattle
Mission
Operational Commercial Communications
Bus & Motor
STARLINK, Unknown motor
Mass
297 kg wet, ~275 kg dry
Launch date (UTC)
2022-06-17 (4 years ago)
Launch vehicle
FALCON 9
Launch site
Air Force Eastern Test Range (AFETR)
Object type
Payload
Rocket body
Debris
Shape & HBR
Box + 1 Pan, 10.1 m
Radar Cross Section
13.562 m², Large (>1 m²)

Expand to show TLE details & history
Last TLE update: 18 hours ago

TLE from 18 hours ago
0 STARLINK-4048
1 52839U 22062K   25349.87913741  .00000026  00000-0  19685-4 0  9993
2 52839  53.2177  50.3601 0001154  95.7845 264.3278 15.08846204193135
Epoch: 2025-12-15T21:05Z
TLE epoch observation values (Epoch: 2025-12-15T21:05:57.472Z)
Latitude
-0.00007°
Longitude
9.09921°
Altitude
540.701 km
Speed
7.593 km/s
True Right ascension
03h 21m 26s
True Declination
0° 00' 00"
Sunlit
Object was in full shadow at epoch
Visualization orbit readout
Latitude
Unknown
Longitude
Unknown
Altitude
Unknown
Speed
Unknown
Apparent Right ascension
Unknown
Apparent Declination
Unknown
Sunlit
N/A
Visualization observer readout
Local Sidereal Time
13:40:32
Azimuth
Unknown
Elevation
Unknown
Doppler factor
Unknown
Orbital elements
Apogee altitude
540.768 km
Perigee altitude
539.171 km
Semi-major axis
6,918.106 km
Eccentricity
0.00012
Inclination
53.2177°
RAAN
50.3601°
Arg. of periapsis
95.7845°
True anomaly
264.31464°
Mean anomaly
264.3278°
Eccentric anomaly
264.32122°
Mean motion
3.77192 °/min
Orbital period
95.44 mins
BSTAR
0.000019685
Loading maneuver chart data...
Computing Atmospheric mass density...
Loading historical data...
Loading historical data...
Loading historical data...
Loading historical data...
Loading historical data...
Loading historical data...
Loading historical data...

Documentation

Showing up to 5 results
|